Location: Spor
(46.2167°N, 11.0500°E)
Time: 20:17:38
(UTC+00:00)

STARLINK-1297 - Pass Details

Date: 07 June 2020
Orbit: 548 x 551 km, 53.0° (Epoch: 04 July)

Event Time Altitude Azimuth Distance (km) Brightness Sun altitude
Exits shadow 00:25:13 40° 243° (WSW) 814 4.1 -19.2°
Maximum altitude 00:26:38 86° 330° (NNW) 558 3.6 -19.1°
Drops below altitude 10° 00:30:49 10° 59° (ENE) 1,833 7.0 -18.9°
Sets 00:33:04 0° 60° (ENE) 2,732 8.0 -18.8°
